User: anonymous   Login
Location: Unspecified
(0.0000°N, 0.0000°E)
Time: 04:07:45
(UTC+00:00)
Language:

Kosmos-2233 - Orbit

View from above orbital plane
View from above orbital plane
View from above satellite
View from above satellite

Ground track
Ground track

The orbit data is extracted from the following two-line orbital elements,

1 22487U 93008A   18343.79643236 +.00000041 +00000-0 +26280-4 0  9999
2 22487 082.9466 059.4844 0037218 227.3099 272.8016 13.75781454292663
Epoch (UTC): 09 December 2018 19:06:51
Eccentricity: 0.0037218
inclination: 82.9466°
perigee height: 951 km
apogee height: 1006 km
right ascension of ascending node: 59.4844°
argument of perigee: 227.3099°
revolutions per day: 13.75781454
mean anomaly at epoch: 272.8016°
orbit number at epoch: 29266

The dashed part of the orbit path shows where the satellite is in the earth's shadow,  

DLR